Location: Indian Hills
(32.9760°N, 85.9450°W)
Time: 04:38:20
(UTC+00:00)

STARLINK-65 - Pass Details

Date: 09 December 2019
Orbit: 529 x 531 km, 53.0° (Epoch: 21 January)

Event Time Altitude Azimuth Distance (km) Brightness Sun altitude
Exits shadow 11:07:46 29° 239° (WSW) 982 4.5 -17.8°
Maximum altitude 11:07:58 29° 233° (SW) 978 4.6 -17.8°
Drops below altitude 10° 11:11:27 10° 172° (S) 1,763 6.5 -17.1°
Sets 11:13:51 0° 161° (SSE) 2,648 7.6 -16.6°
